Overview Statistics Trail Chart Weather Telemetry Raw packets
 

This is the latest recevied weather packets stored in our database for station/object 9W2CHF-2. If no packets are shown the sender has not sent any weather packets the latest 10 day(s).

<< 5 6 7 8 9 10 11 >>
Time Temp. Humidity Pressure Rain* Wind** Luminosity Snow
1788486406 32.22° C 65% 1014.2 hPa - - - -
1788485506 32.78° C 57% 1014.2 hPa - - - -
1788484606 33.33° C 54% 1014.3 hPa - - - -
1788483705 33.33° C 57% 1014.3 hPa - - - -
1788482805 32.78° C 58% 1014.2 hPa - - - -
1788481905 32.78° C 58% 1014.1 hPa - - - -
1788481005 32.78° C 61% 1013.8 hPa - - - -
1788480104 32.78° C 61% 1013.5 hPa - - - -
1788479204 32.78° C 60% 1013.2 hPa - - - -
1788478304 32.78° C 59% 1013 hPa - - - -
1788477404 32.78° C 59% 1012.8 hPa - - - -
1788476504 32.78° C 58% 1012.5 hPa - - - -
1788475604 32.78° C 59% 1012.4 hPa - - - -
1788474703 32.78° C 58% 1012.2 hPa - - - -
1788473803 32.78° C 59% 1012.1 hPa - - - -
1788472903 32.78° C 57% 1011.9 hPa - - - -
1788472003 32.78° C 57% 1011.9 hPa - - - -
1788471103 32.78° C 57% 1011.9 hPa - - - -
1788470215 32.78° C 57% 1011.7 hPa - - - -
1788469303 32.78° C 57% 1011.8 hPa - - - -
1788468403 32.78° C 58% 1011.6 hPa - - - -
1788467503 32.78° C 57% 1011.6 hPa - - - -
1788466602 32.78° C 58% 1011.6 hPa - - - -
1788465702 32.78° C 57% 1011.5 hPa - - - -
1788464802 32.78° C 58% 1011.4 hPa - - - -

* Rain since midnight (hover to see other rain measurements)
** Current wind speed in m/s (hover to see current wind gust speed)